[[{"header":{"parameterUnit":"m.s-1","parameterCategory":1,"la1":30.2991,"la2":30.254,"lo1":-89.0895,"lo2":-89.0444,"dy":0.0017,"dx":0.0017,"nx":28,"ny":28,"refTime":"2024-04-10T21:00:00:Z","depth":0,"parameterNumber":2,"parameterNumberName":"U-component_of_WINDS"},"data":[0,0,0,0,0,0,0,0,0,0,0,0,0,0,0,0,0,0,0,0,0,0,0,0,0,0,0,0,0,0,0,0,0,0,0,0,0,0,0,0,0,0,0,0,0,0,0,0,0,0,0,0,0,0,0,0,0,0,-2.0861,-2.0862,0,-2.1004,-2.1005,-2.1007,-2.0972,-2.0969,-2.0966,-2.0963,-2.111,-2.1117,-2.1123,0,0,0,0,0,0,0,0,0,0,0,0,0,-2.0552,-2.0558,-2.086,-2.0862,-2.0864,-2.1003,-2.1005,-2.1007,-2.0972,-2.0969,-2.0965,-2.0962,-2.1108,-2.1116,-2.1124,0,0,0,0,0,0,0,0,0,0,0,0,0,-2.069,-2.056,-2.086,-2.0863,-2.0865,-2.1003,-2.1006,-2.1008,-2.0973,-2.0969,-2.0964,-2.0961,-2.1106,-2.1115,-2.1125,-2.1269,0,0,-2.1155,-2.1159,0,0,0,0,0,0,0,0,-2.0682,-2.0701,-2.0861,-2.0863,-2.0865,-2.0965,-2.0951,-2.1095,-2.0974,-2.0932,-2.0963,-2.0958,-2.1066,-2.1078,-2.1115,-2.1276,-2.1282,-2.1156,-2.1162,-2.1166,-2.1168,0,0,0,0,0,0,0,-2.0673,-2.0695,-2.0917,-2.0863,-2.0866,-2.0856,-2.0871,-2.0978,-2.1021,-2.0935,-2.0933,-2.095,-2.1066,-2.1105,-2.1118,-2.1284,-2.1155,-2.1164,-2.117,-2.1174,-2.1564,-2.1568,0,0,0,0,0,0,-2.0662,-2.0687,-2.0913,-2.0921,-2.0762,-2.0865,-2.0882,-2.0938,-2.1019,-2.1028,-2.0954,-2.0948,-2.1091,-2.1106,-2.1123,-2.1293,-2.1166,-2.1175,-2.118,-2.156,-2.1565,-2.157,0,0,0,0,0,0,-2.0655,-2.0682,-2.0907,-2.0804,-2.0832,-2.0875,-2.0938,-2.0943,-2.0982,-2.1033,-2.104,-2.0986,-2.1088,-2.1109,-2.1231,-2.1298,-2.1179,-2.1188,-2.1554,-2.1561,-2.1567,-2.1638,0,0,0,0,0,0,-2.0647,-2.068,-2.0737,-2.0805,-2.0837,-2.1015,-2.0942,-2.0949,-2.0999,-2.0993,-2.1066,-2.1074,-2.1086,-2.1217,-2.1241,-2.1309,-2.1196,-2.1548,-2.1557,-2.1565,-2.163,-2.1646,-2.166,0,0,0,0,0,-2.0636,-2.0753,-2.074,-2.0768,-2.0909,-2.1019,-2.1037,-2.1049,-2.1004,-2.1061,-2.1092,-2.1071,-2.1286,-2.123,-2.1257,-2.1329,-2.1544,-2.1555,-2.1565,-2.1623,-2.1643,-2.166,0,0,0,0,0,0,-2.0693,-2.0762,-2.0749,-2.0892,-2.0949,-2.1013,-2.1085,-2.1071,-2.1143,-2.1135,-2.1146,-2.1162,-2.1286,-2.132,-2.1256,-2.1469,-2.1409,-2.1425,-2.1444,-2.1463,-2.1478,-2.1468,-2.1204,0,0,0,0,0,-2.0722,-2.0806,-2.0861,-2.0982,-2.1011,-2.1043,-2.1091,-2.1094,-2.1155,-2.118,-2.1221,-2.128,-2.136,-2.1413,-2.149,-2.1633,-2.1646,-2.1695,-2.171,-2.1722,-2.1736,-2.1809,-2.1831,-2.1603,-2.1603,-2.1603,0,0,-2.0784,-2.0831,-2.0884,-2.0994,-2.104,-2.1124,-2.1064,-2.1158,-2.122,-2.1194,-2.1312,-2.1343,-2.1409,-2.1541,-2.1601,-2.1572,-2.1801,-2.1735,-2.1745,-2.1752,-2.1822,-2.1843,-2.1862,-2.161,-2.1609,-2.1608,0,0,-2.0939,-2.0985,-2.1088,-2.1133,-2.1201,-2.122,-2.1244,-2.1308,-2.1328,-2.1445,-2.1425,-2.1498,-2.1638,-2.1684,-2.1726,-2.189,-2.1872,-2.1915,-2.1995,-2.2066,-2.2084,-2.2099,-2.2155,-2.2176,-2.1928,-2.1929,-2.1929,0,-2.1008,-2.1136,-2.1143,-2.1237,-2.1284,-2.1261,-2.1363,-2.1407,-2.1497,-2.1529,-2.1495,-2.1664,-2.1708,-2.1848,-2.1887,-2.1923,-2.1948,-2.1908,-2.208,-2.2096,-2.2111,-2.2165,-2.2186,-2.1933,-2.1933,-2.1932,-2.1932,0,-2.1214,-2.1302,-2.1377,-2.1462,-2.1517,-2.1615,-2.1635,-2.1689,-2.1686,-2.1707,-2.1824,-2.1874,-2.1958,-2.1991,-2.199,-2.2129,-2.2109,-2.2078,-2.2017,-2.2138,-2.2188,-2.2208,-2.194,-2.1938,-2.1937,-2.1936,0,0,-2.1416,-2.1498,-2.1525,-2.1561,-2.1631,-2.1698,-2.1792,-2.1873,-2.1918,-2.1979,-2.2057,-2.2171,-2.214,-2.2188,-2.219,-2.2253,-2.2375,-2.2213,-2.2214,-2.224,-2.2527,-2.2549,-2.2573,-2.2362,-2.2366,-2.2369,-2.252,0,-2.1576,-2.1743,-2.1748,-2.19,-2.1979,-2.1954,-2.2035,-2.2085,-2.2106,-2.2175,-2.2197,-2.2277,-2.2233,-2.226,-2.232,-2.2347,-2.2432,-2.2336,-2.2432,-2.2436,-2.2417,-2.26,-2.2626,-2.2767,-2.254,-2.2544,-2.2546,0,-2.1788,-2.1852,-2.201,-2.2062,-2.2096,-2.2169,-2.224,-2.2307,-2.2361,-2.2371,-2.242,-2.2412,-2.2504,-2.2439,-2.2565,-2.2499,-2.2538,-2.2556,-2.2562,-2.2572,-2.2499,-2.2614,-2.2813,-2.2833,-2.2577,-2.2575,-2.2573,0,-2.1916,-2.2042,-2.2152,-2.2183,-2.2248,-2.2299,-2.2328,-2.2378,-2.2424,-2.2485,-2.2514,-2.2586,-2.2625,-2.2679,-2.2689,-2.2641,-2.2814,-2.275,-2.2823,-2.2823,-2.2863,-2.286,-2.307,-2.2888,-2.2888,-2.2887,-2.2887,0,-2.2095,-2.2193,-2.2209,-2.2277,-2.2383,-2.2387,-2.2492,-2.2517,-2.256,-2.2629,-2.2612,-2.2678,-2.2687,-2.2754,-2.2761,-2.2862,-2.2881,-2.289,-2.2891,-2.2892,-2.289,-2.2918,-2.2908,-2.2893,-2.2892,-2.2891,-2.289,0,-2.2259,-2.2274,-2.2391,-2.244,-2.2454,-2.253,-2.2571,-2.2634,-2.265,-2.2739,-2.2759,-2.2785,-2.2862,-2.2876,-2.2968,-2.2972,-2.3092,-2.3084,-2.3074,-2.3073,-2.3144,-2.3137,-2.3379,-2.3409,-2.3209,-2.321,-2.3212,0,-2.2373,-2.2446,-2.2501,-2.2545,-2.2576,-2.265,-2.2695,-2.2698,-2.2746,-2.2808,-2.2863,-2.2938,-2.2998,-2.3122,-2.3148,-2.3216,-2.3208,-2.3288,-2.3219,-2.3215,-2.3207,-2.3203,-2.3208,-2.3302,-2.3304,-2.3306,-2.3307,0,-2.2572,-2.2573,-2.264,-2.2706,-2.276,-2.2813,-2.2864,-2.2901,-2.291,-2.2964,-2.3042,-2.3088,-2.3178,-2.3252,-2.3318,-2.3346,-2.3328,-2.3328,-2.3348,-2.335,-2.3341,-2.3344,-2.311,-2.3323,-2.3322,-2.3321,-2.332,-2.3319,-2.2713,-2.2775,-2.2821,-2.2894,-2.293,-2.2976,-2.3036,-2.3057,-2.3122,-2.3195,-2.3192,-2.3276,-2.3322,-2.3409,-2.344,-2.3504,-2.3479,-2.3509,-2.3516,-2.3523,-2.3529,-2.3329,-2.3517,-2.3516,-2.3516,-2.3515,-2.3515,0,-2.291,-2.2936,-2.3002,-2.3071,-2.3126,-2.3101,-2.3153,-2.3201,-2.3275,-2.3319,-2.3377,-2.3463,-2.3531,-2.356,-2.3627,-2.3672,-2.3665,-2.3689,-2.3686,-2.3692,-2.355,-2.3525,-2.3694,-2.3694,-2.3694,-2.3694,-2.3694,-2.3694,-2.3019,-2.3121,-2.3127,-2.3245,-2.3271,-2.3352,-2.3384,-2.3424,-2.3458,-2.3555,-2.3611,-2.3628,-2.3664,-2.3732,-2.3793,-2.3799,-2.3824,-2.3852,-2.3854,-2.3721,-2.3703,-2.3686,-2.3662,-2.3857,-2.3858,-2.3991,-2.3992,-2.3993]},{"header":{"parameterUnit":"m.s-1","parameterCategory":1,"la1":30.2991,"la2":30.254,"lo1":-89.0895,"lo2":-89.0444,"dy":0.0017,"dx":0.0017,"nx":28,"ny":28,"refTime":"2024-04-10T21:00:00:Z","depth":0,"parameterNumber":3,"parameterNumberName":"V-component_of_WINDS"},"data":[0,0,0,0,0,0,0,0,0,0,0,0,0,0,0,0,0,0,0,0,0,0,0,0,0,0,0,0,0,0,0,0,0,0,0,0,0,0,0,0,0,0,0,0,0,0,0,0,0,0,0,0,0,0,0,0,0,0,-0.8103,-0.8103,0,-0.8089,-0.8089,-0.8089,-0.813,-0.8132,-0.8133,-0.8134,-0.8113,-0.8111,-0.811,0,0,0,0,0,0,0,0,0,0,0,0,0,-0.8164,-0.8162,-0.8103,-0.8103,-0.8103,-0.8089,-0.8089,-0.8089,-0.813,-0.8132,-0.8133,-0.8135,-0.8114,-0.8112,-0.811,0,0,0,0,0,0,0,0,0,0,0,0,0,-0.8142,-0.8162,-0.8103,-0.8122,-0.8124,-0.8089,-0.8089,-0.8089,-0.813,-0.8132,-0.8134,-0.8135,-0.8114,-0.8112,-0.8109,-0.8054,0,0,-0.8101,-0.81,0,0,0,0,0,0,0,0,-0.8143,-0.814,-0.812,-0.8121,-0.8123,-0.8114,-0.8103,-0.8077,-0.8129,-0.8127,-0.8134,-0.8136,-0.8111,-0.8109,-0.8102,-0.8053,-0.8052,-0.8101,-0.8099,-0.8098,-0.8097,0,0,0,0,0,0,0,-0.8145,-0.8141,-0.8098,-0.8119,-0.8121,-0.813,-0.8129,-0.8098,-0.8108,-0.8128,-0.8131,-0.8129,-0.8112,-0.8104,-0.8102,-0.8052,-0.8101,-0.8099,-0.8097,-0.8096,-0.7961,-0.7959,0,0,0,0,0,0,-0.8144,-0.8142,-0.8098,-0.8097,-0.8138,-0.8128,-0.8127,-0.8114,-0.8109,-0.811,-0.8127,-0.8131,-0.8108,-0.8105,-0.8101,-0.8039,-0.8098,-0.8096,-0.8094,-0.7963,-0.796,-0.7958,0,0,0,0,0,0,-0.8145,-0.814,-0.8099,-0.812,-0.8116,-0.8125,-0.811,-0.8113,-0.8105,-0.8109,-0.811,-0.8117,-0.8109,-0.8105,-0.8067,-0.8039,-0.8095,-0.8092,-0.7965,-0.7962,-0.7959,-0.7913,0,0,0,0,0,0,-0.8147,-0.814,-0.812,-0.812,-0.8114,-0.8065,-0.8109,-0.8111,-0.8101,-0.8106,-0.81,-0.81,-0.8111,-0.8071,-0.8064,-0.8036,-0.809,-0.7968,-0.7964,-0.796,-0.7917,-0.7909,-0.7901,0,0,0,0,0,-0.8149,-0.8105,-0.8119,-0.8113,-0.8089,-0.8064,-0.806,-0.8075,-0.8099,-0.8078,-0.8081,-0.8101,-0.8043,-0.8066,-0.8059,-0.803,-0.7969,-0.7965,-0.796,-0.792,-0.791,-0.7902,0,0,0,0,0,0,-0.8099,-0.8105,-0.812,-0.8075,-0.8069,-0.8071,-0.8045,-0.8063,-0.8048,-0.8053,-0.8069,-0.8068,-0.8027,-0.8024,-0.805,-0.7978,-0.801,-0.8004,-0.7982,-0.7972,-0.7965,-0.7967,-0.8088,0,0,0,0,0,-0.8083,-0.8063,-0.8069,-0.8028,-0.8025,-0.8036,-0.8025,-0.8037,-0.803,-0.8027,-0.8027,-0.8018,-0.7999,-0.7985,-0.7967,-0.7916,-0.7917,-0.7893,-0.7886,-0.7879,-0.7874,-0.7851,-0.7841,-0.7943,-0.7943,-0.7943,0,0,-0.8049,-0.805,-0.8036,-0.8019,-0.8015,-0.7994,-0.8033,-0.8007,-0.7992,-0.8022,-0.7988,-0.7988,-0.7979,-0.7936,-0.7917,-0.7933,-0.7846,-0.7873,-0.7868,-0.7867,-0.7845,-0.7835,-0.7827,-0.794,-0.7941,-0.7941,0,0,-0.7977,-0.7975,-0.7943,-0.794,-0.7936,-0.7944,-0.7936,-0.7936,-0.7938,-0.7904,-0.7928,-0.7908,-0.7873,-0.7868,-0.786,-0.779,-0.7808,-0.7783,-0.7743,-0.772,-0.7712,-0.7705,-0.7682,-0.7674,-0.7778,-0.7778,-0.7777,0,-0.7935,-0.7906,-0.7924,-0.7899,-0.7891,-0.7921,-0.7889,-0.7884,-0.7873,-0.7867,-0.7885,-0.7845,-0.7841,-0.7799,-0.7782,-0.7774,-0.7766,-0.7784,-0.7712,-0.7705,-0.7699,-0.7678,-0.7669,-0.7775,-0.7775,-0.7775,-0.7776,0,-0.7856,-0.7835,-0.7809,-0.7802,-0.7791,-0.7762,-0.7776,-0.7763,-0.7776,-0.7782,-0.7749,-0.7746,-0.7729,-0.772,-0.773,-0.7679,-0.769,-0.771,-0.7742,-0.7686,-0.7667,-0.7658,-0.7771,-0.7772,-0.7773,-0.7773,0,0,-0.7751,-0.7757,-0.7747,-0.7746,-0.7744,-0.7728,-0.7701,-0.7688,-0.7677,-0.7668,-0.7647,-0.7619,-0.7639,-0.763,-0.7641,-0.7621,-0.7569,-0.7643,-0.7644,-0.7632,-0.7515,-0.7502,-0.7492,-0.7581,-0.7579,-0.7578,-0.7517,0,-0.7683,-0.764,-0.7657,-0.7612,-0.7594,-0.7623,-0.76,-0.7596,-0.7602,-0.7587,-0.7591,-0.7573,-0.7599,-0.7594,-0.7575,-0.7579,-0.7546,-0.7584,-0.7561,-0.756,-0.7565,-0.7481,-0.7466,-0.7408,-0.7509,-0.7507,-0.7507,0,-0.7597,-0.759,-0.7544,-0.7549,-0.7542,-0.7521,-0.7512,-0.7497,-0.7494,-0.7499,-0.7492,-0.7508,-0.7482,-0.7514,-0.748,-0.7505,-0.7497,-0.7498,-0.7496,-0.7495,-0.7531,-0.748,-0.7389,-0.7381,-0.7494,-0.7495,-0.7496,0,-0.7529,-0.7506,-0.7477,-0.7474,-0.7479,-0.7464,-0.7465,-0.7464,-0.7456,-0.7447,-0.7443,-0.743,-0.7423,-0.7413,-0.7425,-0.7447,-0.7389,-0.7422,-0.7394,-0.7393,-0.7381,-0.7381,-0.7289,-0.7372,-0.7373,-0.7373,-0.7373,0,-0.7452,-0.7424,-0.7447,-0.7429,-0.7399,-0.7419,-0.7387,-0.7391,-0.7391,-0.7374,-0.7397,-0.738,-0.7397,-0.7382,-0.7392,-0.7363,-0.7359,-0.7363,-0.7366,-0.7362,-0.7361,-0.7357,-0.7362,-0.7371,-0.7371,-0.7371,-0.7372,0,-0.7371,-0.7386,-0.7356,-0.7364,-0.7366,-0.7343,-0.7349,-0.7333,-0.7341,-0.732,-0.7316,-0.7327,-0.7311,-0.7323,-0.7306,-0.7313,-0.7275,-0.7283,-0.7277,-0.728,-0.7252,-0.7255,-0.7155,-0.7144,-0.7233,-0.7232,-0.7231,0,-0.7322,-0.7302,-0.7309,-0.73,-0.7301,-0.7286,-0.7279,-0.7298,-0.729,-0.7287,-0.7271,-0.7258,-0.7248,-0.7221,-0.7227,-0.7215,-0.7223,-0.7189,-0.7221,-0.7219,-0.7225,-0.7227,-0.7226,-0.7183,-0.7182,-0.7181,-0.718,0,-0.7235,-0.7244,-0.7234,-0.7227,-0.7219,-0.7214,-0.721,-0.7201,-0.7221,-0.721,-0.7196,-0.7189,-0.7174,-0.716,-0.7151,-0.7151,-0.7169,-0.717,-0.7164,-0.7159,-0.7158,-0.7161,-0.7261,-0.7172,-0.7173,-0.7174,-0.7174,-0.7175,-0.7169,-0.7154,-0.7157,-0.7146,-0.7146,-0.7143,-0.713,-0.7137,-0.7126,-0.7117,-0.7129,-0.7111,-0.7111,-0.7101,-0.7099,-0.7085,-0.7099,-0.7088,-0.7086,-0.7084,-0.7081,-0.716,-0.7083,-0.7083,-0.7084,-0.7084,-0.7084,0,-0.7085,-0.709,-0.7079,-0.7076,-0.7067,-0.7087,-0.7085,-0.7076,-0.7062,-0.7061,-0.7052,-0.7037,-0.7024,-0.7031,-0.7021,-0.7009,-0.7017,-0.7005,-0.7007,-0.7007,-0.7068,-0.7076,-0.6999,-0.6999,-0.6999,-0.6999,-0.6999,-0.6999,-0.704,-0.7016,-0.7026,-0.7002,-0.7006,-0.6991,-0.6989,-0.6986,-0.6986,-0.6969,-0.696,-0.6965,-0.6968,-0.6958,-0.6948,-0.695,-0.6946,-0.6932,-0.6937,-0.6994,-0.7002,-0.701,-0.7018,-0.693,-0.693,-0.6878,-0.6877,-0.6877]}]]